When you browse on this site, cookies collect data to enhance your experience and personalize the content and advertising you see.
Visit our Privacy Policy to learn more. By continuing to use the site, you agree to this use of cookies and data.

Météo par heure à Sydney

Ce jour, 10 Août, Lundi

Heure Température Précipitation Vent Pression Humidité
00:00 +12°C° 1.4 mm 8 m/s 755 mmHg 85%
01:00 +11°C° 1.4 mm 9 m/s 755 mmHg 87%
02:00 +12°C° 2.4 mm 10 m/s 756 mmHg 87%
03:00 +12°C° 2.4 mm 11 m/s 756 mmHg 87%
04:00 +12°C° 0 mm 12 m/s 757 mmHg 86%
05:00 +12°C° 0.9 mm 12 m/s 757 mmHg 84%
06:00 +12°C° 0.9 mm 12 m/s 758 mmHg 82%
07:00 +12°C° 0.9 mm 12 m/s 758 mmHg 80%
08:00 +12°C° 0.5 mm 12 m/s 759 mmHg 78%
09:00 +12°C° 0.5 mm 12 m/s 760 mmHg 76%
10:00 +13°C° 0 mm 11 m/s 761 mmHg 72%
11:00 +13°C° 0.1 mm 11 m/s 761 mmHg 70%
12:00 +13°C° 0.1 mm 10 m/s 761 mmHg 69%
13:00 +13°C° 0.1 mm 10 m/s 761 mmHg 67%
14:00 +13°C° 0.2 mm 10 m/s 762 mmHg 67%
15:00 +13°C° 0.2 mm 10 m/s 762 mmHg 67%
16:00 +13°C° 0 mm 8 m/s 763 mmHg 68%
17:00 +12°C° 0.1 mm 8 m/s 763 mmHg 72%
18:00 +11°C° 0.1 mm 7 m/s 763 mmHg 76%
19:00 +11°C° 0.1 mm 7 m/s 763 mmHg 80%
20:00 +11°C° 0.1 mm 7 m/s 764 mmHg 81%
21:00 +10°C° 0.1 mm 6 m/s 764 mmHg 82%
22:00 +10°C° 0.1 mm 6 m/s 764 mmHg 83%
23:00 +10°C° 0 mm 5 m/s 764 mmHg 85%

Demain, 11 Août, Mardi

Heure Température Précipitation Vent Pression Humidité
00:00 +9°C° 0 mm 5 m/s 764 mmHg 86%
01:00 +9°C° 0 mm 5 m/s 764 mmHg 87%
02:00 +9°C° 0 mm 5 m/s 764 mmHg 86%
03:00 +10°C° 0 mm 4 m/s 764 mmHg 86%
04:00 +10°C° 0 mm 4 m/s 764 mmHg 85%
05:00 +8°C° 0.1 mm 4 m/s 764 mmHg 85%
06:00 +8°C° 0.1 mm 4 m/s 765 mmHg 85%
07:00 +9°C° 0.1 mm 3 m/s 765 mmHg 85%
08:00 +10°C° 0 mm 3 m/s 765 mmHg 80%
09:00 +13°C° 0 mm 2 m/s 765 mmHg 75%
10:00 +14°C° 0 mm 2 m/s 764 mmHg 71%
11:00 +15°C° 0 mm 2 m/s 764 mmHg 65%
12:00 +16°C° 0 mm 1 m/s 763 mmHg 59%
13:00 +19°C° 0 mm 1 m/s 763 mmHg 54%
14:00 +18°C° 0 mm 1 m/s 763 mmHg 55%
15:00 +18°C° 0 mm 1 m/s 762 mmHg 57%
16:00 +18°C° 0 mm 1 m/s 762 mmHg 58%
17:00 +15°C° 0 mm 2 m/s 762 mmHg 64%
18:00 +14°C° 0 mm 2 m/s 763 mmHg 71%
19:00 +13°C° 0 mm 2 m/s 763 mmHg 77%
20:00 +12°C° 0 mm 2 m/s 763 mmHg 79%
21:00 +11°C° 0 mm 3 m/s 763 mmHg 81%
22:00 +10°C° 0 mm 3 m/s 763 mmHg 84%
23:00 +10°C° 0 mm 3 m/s 763 mmHg 85%

Après-demain, 12 Août, Mercredi

Heure Température Précipitation Vent Pression Humidité
00:00 +10°C° 0 mm 3 m/s 763 mmHg 86%
01:00 +10°C° 0 mm 3 m/s 762 mmHg 87%
02:00 +9°C° 0 mm 3 m/s 762 mmHg 87%
03:00 +9°C° 0 mm 3 m/s 762 mmHg 86%
04:00 +9°C° 0 mm 3 m/s 761 mmHg 86%
05:00 +9°C° 0 mm 3 m/s 761 mmHg 86%
06:00 +10°C° 0 mm 3 m/s 761 mmHg 86%
07:00 +10°C° 0 mm 3 m/s 762 mmHg 86%
08:00 +11°C° 0 mm 3 m/s 761 mmHg 79%
09:00 +13°C° 0 mm 3 m/s 761 mmHg 71%
10:00 +16°C° 0 mm 3 m/s 761 mmHg 64%
11:00 +17°C° 0 mm 3 m/s 760 mmHg 57%
12:00 +19°C° 0 mm 2 m/s 760 mmHg 50%
13:00 +20°C° 0 mm 2 m/s 759 mmHg 44%
14:00 +20°C° 0 mm 2 m/s 759 mmHg 46%
15:00 +20°C° 0 mm 3 m/s 759 mmHg 48%
16:00 +20°C° 0 mm 3 m/s 758 mmHg 50%
17:00 +19°C° 0.1 mm 3 m/s 759 mmHg 57%
18:00 +17°C° 0.1 mm 2 m/s 759 mmHg 64%
19:00 +16°C° 0.1 mm 2 m/s 760 mmHg 71%
20:00 +15°C° 0.1 mm 2 m/s 760 mmHg 75%
21:00 +14°C° 0.1 mm 3 m/s 760 mmHg 78%
22:00 +13°C° 0.1 mm 3 m/s 760 mmHg 81%
23:00 +12°C° 0 mm 3 m/s 760 mmHg 83%

13 Août, Jeudi

Heure Température Précipitation Vent Pression Humidité
00:00 +12°C° 0 mm 3 m/s 759 mmHg 85%
01:00 +11°C° 0 mm 3 m/s 759 mmHg 87%
02:00 +11°C° 0 mm 3 m/s 759 mmHg 86%
03:00 +11°C° 0 mm 3 m/s 759 mmHg 86%
04:00 +11°C° 0 mm 3 m/s 759 mmHg 85%
05:00 +11°C° 0 mm 3 m/s 759 mmHg 85%
06:00 +10°C° 0 mm 3 m/s 760 mmHg 85%
07:00 +10°C° 0 mm 4 m/s 760 mmHg 85%
08:00 +13°C° 0 mm 3 m/s 760 mmHg 78%
09:00 +16°C° 0 mm 3 m/s 760 mmHg 70%
10:00 +18°C° 0 mm 3 m/s 760 mmHg 62%
11:00 +20°C° 0 mm 2 m/s 760 mmHg 55%
12:00 +23°C° 0 mm 1 m/s 759 mmHg 48%
13:00 +24°C° 0 mm 1 m/s 759 mmHg 42%
14:00 +24°C° 0 mm 2 m/s 759 mmHg 46%
15:00 +22°C° 0 mm 3 m/s 759 mmHg 50%
16:00 +21°C° 0 mm 4 m/s 758 mmHg 54%
17:00 +20°C° 0 mm 4 m/s 759 mmHg 59%
18:00 +19°C° 0 mm 4 m/s 759 mmHg 65%
19:00 +17°C° 0 mm 4 m/s 760 mmHg 71%
20:00 +17°C° 0 mm 4 m/s 760 mmHg 73%
21:00 +17°C° 0 mm 4 m/s 760 mmHg 75%
22:00 +17°C° 0 mm 3 m/s 760 mmHg 78%
23:00 +16°C° 0.1 mm 3 m/s 760 mmHg 80%

14 Août, Vendredi

Heure Température Précipitation Vent Pression Humidité
00:00 +14°C° 0.1 mm 3 m/s 760 mmHg 82%
01:00 +13°C° 0.1 mm 3 m/s 760 mmHg 85%
02:00 +13°C° 0 mm 3 m/s 759 mmHg 85%
03:00 +12°C° 0 mm 3 m/s 759 mmHg 86%
04:00 +13°C° 0 mm 2 m/s 759 mmHg 86%
05:00 +12°C° 0 mm 3 m/s 759 mmHg 85%
06:00 +12°C° 0 mm 3 m/s 759 mmHg 83%
07:00 +12°C° 0 mm 3 m/s 759 mmHg 81%
08:00 +13°C° 0 mm 3 m/s 759 mmHg 74%
09:00 +16°C° 0 mm 3 m/s 759 mmHg 67%
10:00 +18°C° 0 mm 3 m/s 759 mmHg 60%
11:00 +19°C° 0 mm 2 m/s 759 mmHg 56%
12:00 +20°C° 0 mm 2 m/s 759 mmHg 52%
13:00 +21°C° 0 mm 2 m/s 758 mmHg 48%
14:00 +22°C° 0 mm 1 m/s 758 mmHg 49%
15:00 +21°C° 0 mm 1 m/s 758 mmHg 51%
16:00 +21°C° 0 mm 1 m/s 758 mmHg 53%
17:00 +19°C° 0 mm 2 m/s 758 mmHg 56%
18:00 +18°C° 0 mm 3 m/s 759 mmHg 58%
19:00 +17°C° 0 mm 4 m/s 759 mmHg 61%
20:00 +15°C° 0 mm 4 m/s 760 mmHg 65%
21:00 +14°C° 0 mm 4 m/s 760 mmHg 69%
22:00 +13°C° 0 mm 3 m/s 760 mmHg 74%
23:00 +13°C° 0 mm 3 m/s 760 mmHg 76%

15 Août, Samedi

Heure Température Précipitation Vent Pression Humidité
00:00 +12°C° 0 mm 3 m/s 759 mmHg 78%
01:00 +12°C° 0 mm 3 m/s 759 mmHg 80%
02:00 +11°C° 0 mm 3 m/s 759 mmHg 80%
03:00 +11°C° 0 mm 3 m/s 759 mmHg 81%
04:00 +10°C° 0 mm 3 m/s 758 mmHg 82%
05:00 +10°C° 0 mm 2 m/s 759 mmHg 82%
06:00 +10°C° 0 mm 2 m/s 759 mmHg 82%
07:00 +10°C° 0 mm 2 m/s 759 mmHg 82%
08:00 +13°C° 0 mm 2 m/s 759 mmHg 74%
09:00 +15°C° 0 mm 2 m/s 759 mmHg 67%
10:00 +17°C° 0 mm 2 m/s 758 mmHg 59%
11:00 +18°C° 0 mm 2 m/s 758 mmHg 53%
12:00 +20°C° 0 mm 2 m/s 757 mmHg 47%
13:00 +22°C° 0 mm 1 m/s 757 mmHg 41%
14:00 +21°C° 0 mm 2 m/s 756 mmHg 45%
15:00 +20°C° 0 mm 2 m/s 756 mmHg 49%
16:00 +19°C° 0 mm 3 m/s 756 mmHg 54%
17:00 +18°C° 0 mm 2 m/s 756 mmHg 57%
18:00 +17°C° 0 mm 2 m/s 757 mmHg 61%
19:00 +16°C° 0 mm 2 m/s 757 mmHg 65%
20:00 +16°C° 0.1 mm 2 m/s 757 mmHg 70%
21:00 +14°C° 0.1 mm 3 m/s 757 mmHg 74%
22:00 +13°C° 0.1 mm 3 m/s 758 mmHg 79%
23:00 +13°C° 0.1 mm 3 m/s 757 mmHg 81%
Voir plus